Portada
METAR-TAF:

METAR-TAF

Aeroports :

Batesville, Arkansas, Estats Units d'Amèrica

latitud: 35-44N, longitud: 091-39W, altitud: 141 m

Observació

L'informe es va fer fa 32 minuts, a les 00:56 UTC
Vent 4 kt del Sud-Est
Temperatura 33°C
Humitat 56%
Pressió 1013 hPa
Visibilitat: 16.1 km
Cel clar

METAR: KBVX 250056Z AUTO 13004KT 10SM CLR 33/23 A2991 RMK AO2 SLP123 T03280233

Hora: 20:28 (01:28 UTC)


TAF: manca

Observacions i pronòstics meteorològics de més de 4000 aeroports (METAR i TAF).

Les estacions disponibles són els punts grocs i vermells al mapa.

Posi el ratolí al punt desitjat per veure el nom de l'estació.

Feu clic per veure les observacions i els pronòstics meteorològics.

Per canviar el mapa: feu clic els botons verds amb una creu de color negre per apropar; al botó verd amb un guió per allunyar la imatge; o en les fletxes verdes per a mapes adjacents.


METAR-TAF: